Regional Weather Roundup
Issued by NWS

Home | Current Version | Previous Version | Text Only | Print | Product List | Glossary On
Versions: 1 2 3 4 5 6 7 8 9 10 11 12 13 14 15 16 17 18 19 20 21 22 23 24 25 26 27 28 29 30 31 32 33 34 35 36 37 38 39 40 41 42 43 44 45 46 47 48 49 50
000
ASUS45 KSLC 231310
RWRUT

UTAH REGIONAL WEATHER ROUNDUP
NATIONAL WEATHER SERVICE SALT LAKE CITY UT
600 AM MST TUE JAN 23 2018

UTZ001>011-023>025-231400-

NORTHERN UTAH

CITY           SKY/WX    TMP DP  RH WIND       PRES   REMARKS
BRIGHAM CITY   CLOUDY    24  21  87 NW5       30.36R WCI  18
HILL AFB       MOCLDY    23  18  80 SE7       30.33R WCI  15
LOGAN          HAZE      15   9  76 CALM      30.36R VSB<1/4
OGDEN          PTCLDY    25  18  74 S8        30.34R WCI  16
SALT LAKE CITY MOCLDY    31  24  75 S6        30.35R WCI  25
TOOELE VALLEY  CLOUDY    27  21  80 S12       30.35S WCI  16
WENDOVER       PTCLDY    19  15  84 CALM      30.35R
HEBER CITY     FLURRIES  19  16  86 CALM      30.32R
WEST JORDAN    CLOUDY    27  25  91 S6        30.35R WCI  20

$$

UTZ011>015-024>027-231400-

CENTRAL/NORTHEAST UTAH

CITY           SKY/WX    TMP DP  RH WIND       PRES   REMARKS
PROVO AIRPORT  CLOUDY    17  15  92 S6        30.38R WCI   9
MOAB/CANYONLAN CLEAR     22  18  85 CALM      30.32S
DELTA          PTCLDY    14  12  92 CALM      30.34S
PRICE          PTCLDY    13  10  88 N5        30.27S WCI   5
ROOSEVELT      PTCLDY    10   5  79 W3        30.37S
VERNAL         PTCLDY     4   0  83 CALM      30.35R

$$

UTZ013>016-019>022-027-231400-

SOUTHERN UTAH

CITY           SKY/WX    TMP DP  RH WIND       PRES   REMARKS
BRYCE CANYON   PTCLDY     5   3  91 W10       30.28R WCI -10
CEDAR CITY     PTCLDY     8   6  92 E7        30.30R WCI  -3
MILFORD        MOCLDY     3   0  87 SW7       30.33R WCI  -9
ST GEORGE      SUNNY     28  24  85 CALM      30.34R
HANKSVILLE     CLEAR     14   7  73 NW6       30.37R WCI   5
BLANDING         N/A     13   9  81 N6        30.35R WCI   4

$$

REGIONAL REPORTS     COLORADO/ARIZONA

CITY           SKY/WX    TMP DP  RH WIND       PRES   REMARKS
CRAIG, CO      CLEAR      3  -1  83 CALM      30.30R
GRAND JUNCTION PTCLDY    17  14  88 E7        30.34R WCI   8
RIFLE, CO      PTCLDY    21  18  88 E5        30.33R WCI  15
MONTROSE, CO   PTCLDY    16  11  80 SW3       30.35R
CORTEZ, CO     PTCLDY     6   2  83 NE3       30.27S
COLORADO CITY    N/A     19  14  79 CALM      30.30R
PAGE, AZ       CLEAR     26  15  63 CALM      30.30S
GRAND CANYON   PTCLDY    26   5  40 NE12      30.25R WCI  16
KINGMAN, AZ    CLEAR    N/A N/A N/A E7        30.23S
FLAGSTAFF, AZ  CLEAR     17   2  51 E6        30.22S WCI   9

$$

REGIONAL REPORTS    NEVADA/IDAHO/WYOMING

CITY           SKY/WX    TMP DP  RH WIND       PRES   REMARKS
LAS VEGAS, NV  PTCLDY    40  26  57 CALM      30.26S
ELY, NY        MOCLDY     3  -1  83 S14       30.30R WCI -15
ELKO, NV       CLEAR     19  16  88 E3        30.29S
POCATELLO, ID  CLOUDY    29  23  78 SW10      30.32S WCI  20
BURLEY, ID     CLEAR     23  20  88 CALM      30.31S
FORT BRIDGER,    N/A     15  15  98 W9        30.28S WCI   3
EVANSTON, WY   CLOUDY    20  17  88 S7        30.26R WCI  11
ROCK SPRINGS,  CLEAR     15   9  76 W15       30.23R WCI   0

$$



USA.gov is the U.S. government's official web portal to all federal, state and local government web resources and services.